Weather History for Gunnison, CO

Change the Weather History Date:

Thursday, October 13, 2011

  Actual Average Record
Temperature  
Mean Temperature 44 °F -  
Max Temperature 66 °F 58 °F 71 °F (1999)
Min Temperature 21 °F 22 °F 8 °F (2008)
Degree Days  
Heating Degree Days 22    
Moisture  
Dew Point 21 °F    
Average Humidity 47    
Maximum Humidity 80    
Minimum Humidity 20    
Precipitation  
Precipitation 0.00 in - - ()
Sea Level Pressure  
Sea Level Pressure 30.30 in    
Wind  
Wind Speed 3 mph (West)    
Max Wind Speed 18 mph    
Max Gust Speed 30 mph    
Visibility 10 miles    
Events      
Averages and records for this station are not official NWS values.
T = Trace of Precipitation, MM = Missing Value Source: NWS Daily Summary

Daily Weather History Graph

Daily Weather History Graph

Search for Another Location

Airport:

Trip Planner

Search our weather history database for the weather conditions in past years. The results will help you decide how hot, cold, wet, or windy it might be!

Date:

Astronomy

Oct. 13, 2011 Rise Set
Actual Time 7:14 AM MDT 6:32 PM MDT
Civil Twilight 6:47 AM MDT 6:59 PM MDT
Nautical Twilight 6:17 AM MDT 7:30 PM MDT
Astronomical Twilight 5:46 AM MDT 8:00 PM MDT
Moon 7:12 PM MDT (10/13) 8:47 AM MDT (10/13)
Length of Visible Light 12h 11m
Length of Day
11h 18m
Full, 98% of the Moon is Illuminated
Oct 13
Full
Oct 19
Last Quarter
Oct 26
New
Nov 2
First Quarter
Nov 10
Full

Hourly Weather History & Observations

Time (MDT) Temp. Windchill Dew Point Humidity Pressure Visibility Wind Dir Wind Speed Gust Speed Precip Events Conditions
12:15 AM 33.8 °F - 17.6 °F 52% 30.36 in 10.0 mi Calm Calm - N/A   Clear
12:35 AM 33.8 °F - 21.2 °F 60% 30.36 in 10.0 mi Calm Calm - N/A   Clear
12:55 AM 33.8 °F - 21.2 °F 60% 30.36 in 10.0 mi Calm Calm - N/A   Clear
1:35 AM 28.4 °F 23.3 °F 17.6 °F 64% 30.36 in 10.0 mi ENE 4.6 mph - N/A   Clear
1:55 AM 30.2 °F - 17.6 °F 60% 30.36 in 10.0 mi Calm Calm - N/A   Clear
2:15 AM 30.2 °F - 17.6 °F 60% 30.36 in 10.0 mi Calm Calm - N/A   Clear
2:35 AM 28.4 °F - 17.6 °F 64% 30.36 in 10.0 mi Calm Calm - N/A   Clear
3:15 AM 26.6 °F 21.2 °F 17.6 °F 69% 30.36 in 10.0 mi ENE 4.6 mph - N/A   Clear
3:35 AM 28.4 °F 24.6 °F 17.6 °F 64% 30.36 in 10.0 mi North 3.5 mph - N/A   Clear
3:56 AM 26.6 °F - 17.6 °F 69% 30.37 in 10.0 mi Calm Calm - N/A   Clear
4:15 AM 26.6 °F - 17.6 °F 69% 30.37 in 10.0 mi Calm Calm - N/A   Clear
4:35 AM 24.8 °F - 15.8 °F 69% 30.37 in 10.0 mi Calm Calm - N/A   Clear
4:55 AM 26.6 °F - 17.6 °F 69% 30.37 in 10.0 mi Calm Calm - N/A   Clear
5:15 AM 24.8 °F - 15.8 °F 69% 30.37 in 10.0 mi Calm Calm - N/A   Clear
5:55 AM 24.8 °F - 15.8 °F 69% 30.38 in 10.0 mi Calm Calm - N/A   Clear
6:15 AM 23.0 °F - 15.8 °F 74% 30.38 in 10.0 mi Calm Calm - N/A   Clear
6:35 AM 21.2 °F - 15.8 °F 80% 30.38 in 10.0 mi Calm Calm - N/A   Clear
6:55 AM 23.0 °F - 15.8 °F 74% 30.38 in 10.0 mi Calm Calm - N/A   Clear
7:35 AM 21.2 °F - 15.8 °F 80% 30.39 in 10.0 mi Calm Calm - N/A   Clear
7:55 AM 21.2 °F - 15.8 °F 80% 30.39 in 10.0 mi Calm Calm - N/A   Clear
8:15 AM 24.8 °F 20.5 °F 17.6 °F 74% 30.39 in 10.0 mi ENE 3.5 mph - N/A   Clear
8:35 AM 26.6 °F 21.2 °F 15.8 °F 64% 30.40 in 10.0 mi ENE 4.6 mph - N/A   Clear
8:55 AM 28.4 °F - 19.4 °F 69% 30.39 in 10.0 mi Calm Calm - N/A   Clear
9:15 AM 30.2 °F - 19.4 °F 64% 30.40 in 10.0 mi Calm Calm - N/A   Clear
9:35 AM 33.8 °F - 19.4 °F 56% 30.39 in 10.0 mi Calm Calm - N/A   Clear
9:55 AM 35.6 °F - 19.4 °F 52% 30.38 in 10.0 mi Calm Calm - N/A   Clear
10:15 AM 37.4 °F - 17.6 °F 45% 30.37 in 10.0 mi Calm Calm - N/A   Clear
10:35 AM 39.2 °F - 19.4 °F 45% 30.37 in 10.0 mi Calm Calm - N/A   Clear
10:55 AM 42.8 °F - 21.2 °F 42% 30.35 in 10.0 mi Calm Calm - N/A   Clear
11:15 AM 44.6 °F - 19.4 °F 37% 30.35 in 10.0 mi Calm Calm - N/A   Clear
11:35 AM 46.4 °F - 19.4 °F 34% 30.34 in 10.0 mi Calm Calm - N/A   Clear
11:55 AM 48.2 °F - 19.4 °F 32% 30.33 in 10.0 mi SSE 4.6 mph - N/A   Clear
12:15 PM 48.2 °F - 19.4 °F 32% 30.31 in 10.0 mi South 4.6 mph - N/A   Clear
12:35 PM 51.8 °F - 21.2 °F 30% 30.30 in 10.0 mi Calm Calm - N/A   Clear
12:55 PM 55.4 °F - 21.2 °F 26% 30.28 in 10.0 mi WSW 3.5 mph - N/A   Clear
1:15 PM 55.4 °F - 19.4 °F 25% 30.27 in 10.0 mi West 5.8 mph - N/A   Clear
1:35 PM 57.2 °F - 19.4 °F 23% 30.25 in 10.0 mi West 3.5 mph - N/A   Clear
1:55 PM 60.8 °F - 19.4 °F 20% 30.23 in 10.0 mi West 8.1 mph - N/A   Clear
2:15 PM 62.6 °F - 21.2 °F 20% 30.22 in 10.0 mi SW 6.9 mph - N/A   Clear
2:55 PM 64.4 °F - 23.0 °F 21% 30.19 in 10.0 mi SW 18.4 mph 25.3 mph N/A   Clear
3:15 PM 64.4 °F - 24.8 °F 22% 30.18 in 10.0 mi NW 15.0 mph 29.9 mph N/A   Clear
3:35 PM 64.4 °F - 24.8 °F 22% 30.18 in 10.0 mi SW 15.0 mph 25.3 mph N/A   Partly Cloudy
3:55 PM 66.2 °F - 26.6 °F 23% 30.18 in 10.0 mi WSW 13.8 mph 20.7 mph N/A   Clear
4:15 PM 64.4 °F - 26.6 °F 24% 30.18 in 10.0 mi WSW 15.0 mph 24.2 mph N/A   Clear
4:35 PM 64.4 °F - 26.6 °F 24% 30.19 in 10.0 mi West 17.3 mph 23.0 mph N/A   Clear
4:55 PM 64.4 °F - 26.6 °F 24% 30.19 in 10.0 mi WSW 17.3 mph 23.0 mph N/A   Clear
5:15 PM 62.6 °F - 26.6 °F 26% 30.19 in 10.0 mi WSW 18.4 mph - N/A   Clear
5:35 PM 62.6 °F - 26.6 °F 26% 30.20 in 10.0 mi WSW 15.0 mph 21.9 mph N/A   Clear
5:55 PM 60.8 °F - 26.6 °F 27% 30.20 in 10.0 mi WSW 12.7 mph - N/A   Clear
6:15 PM 60.8 °F - 26.6 °F 27% 30.21 in 10.0 mi WSW 10.4 mph - N/A   Clear
6:35 PM 59.0 °F - 26.6 °F 29% 30.21 in 10.0 mi WNW 10.4 mph - N/A   Clear
7:15 PM 57.2 °F - 26.6 °F 31% 30.22 in 10.0 mi Calm Calm - N/A   Clear
7:35 PM 55.4 °F - 26.6 °F 33% 30.23 in 10.0 mi West 3.5 mph - N/A   Clear
8:15 PM 50.0 °F - 24.8 °F 37% 30.24 in 10.0 mi NNW 5.8 mph - N/A   Clear
8:35 PM 48.2 °F - 24.8 °F 40% 30.24 in 10.0 mi NNW 8.1 mph - N/A   Clear
8:55 PM 46.4 °F 44.3 °F 24.8 °F 43% 30.24 in 10.0 mi NNW 4.6 mph - N/A   Clear
9:35 PM 44.6 °F 41.4 °F 26.6 °F 49% 30.25 in 10.0 mi North 5.8 mph - N/A   Clear
9:55 PM 44.6 °F 41.4 °F 26.6 °F 49% 30.26 in 10.0 mi NNW 5.8 mph - N/A   Clear
10:15 PM 42.8 °F - 26.6 °F 53% 30.26 in 10.0 mi Calm Calm - N/A   Clear
10:55 PM 41.0 °F 39.0 °F 26.6 °F 57% 30.27 in 10.0 mi NE 3.5 mph - N/A   Clear
11:35 PM 37.4 °F - 24.8 °F 60% 30.27 in 10.0 mi Calm Calm - N/A   Clear
11:55 PM 35.6 °F - 23.0 °F 60% 30.27 in 10.0 mi Calm Calm - N/A   Clear